Вернуться в каталог

STARLINK-35374

АктивенСвязьVLEO
NORAD 66194·PAYLOAD·🇺🇸 United States

Запущен Oct 26, 2025 с Cape Canaveral Space Force Station

Loading…

Ближайшие Пролёты (ближайшие 24 часа)

TLE

СвежийSource: CelesTrak SupGP

Эпоха: Sep 14, 2026, 20:52 UTC

1 66194C 25243T   26257.86993056 -.00061088  00000+0 -19646-2 0  2579
2 66194  53.1577  84.9076 0001293  84.3797 181.2986 15.31729537    12

Отслеживайте STARLINK-35374 в реальном времени с AllMySat

Download on the App Store